STARLINK-31934 (59877 NORAD) Tracking and Keplerian Element Data

This shows tracking and keplerian element data for the satellite.

Feedback or suggestion? Click here.




ElementValue
Catalog59877
NameSTARLINK-31934
Epoch Orbit4006
Epoch Day34.6542142
Epoch Year2025
RAAN20.6358
Inclination43.0041
Eccentricity0.0001943
Argument of Perigee284.4148
Mean Anonmoly75.6493
Mean Motion15.40716432
Decay Rate1.395E-05
L11 59877U 24098V 25034.65421420 .00001395 00000+0 40629-4 0 9999
L22 59877 43.0041 20.6358 0001943 284.4148 75.6493 15.40716432 40069



Live tracking and technical data element details for STARLINK-31934 (NORAD 59877). STARLINK-31934 can be tracked NOW for your location showing map with azimuth and elevation plus other details from your city location.







IsCatalogInMostPopularTable: catalog: 59877, numindb: 44
Update: records affected: 1



GetName: 59877 STARLINK-31934

Hit Count: updated at: Wed, 30 Apr 2025 16:07:48 GMT